Вернуться в каталог

DELTA 1 DEB

АктивенUNKNOWN
NORAD 13534·DEBRIS·🇺🇸 United States

Запущен Jul 29, 1976 с Vandenberg Space Force Base

Loading…

Ближайшие Пролёты (ближайшие 24 часа)

TLE

СвежийSource: Space-Track

Эпоха: Sep 14, 2026, 05:59 UTC

1 13534U 76077EG  26257.24963179 -.00000067  00000-0 -48770-3 0  9990
2 13534 101.8657 357.0490 0397083  53.5384 336.2867 11.68359974 35749

Отслеживайте DELTA 1 DEB в реальном времени с AllMySat

Download on the App Store